Location: The Saddle
(36.8333°N, 80.3417°W)
Time: 08:30:19
(UTC-05:00)

Vanguard 2 Rocket - Pass Details

Date: 12 December 2023
Orbit: 555 x 3309 km, 32.9° (Epoch: 02 March)

Event Time Altitude Azimuth Distance (km) Brightness Sun altitude
Rises 16:11:52 0° 274° (W) 6,202 12.0 8.2°
Reaches altitude 10° 16:15:29 10° 273° (W) 5,466 11.8 7.6°
Maximum altitude 16:33:29 73° 193° (SSW) 3,382 10.1 4.6°
Drops below altitude 10° 16:53:03 10° 113° (ESE) 5,863 10.7 1.3°
Sets 16:57:06 0° 112° (ESE) 6,650 10.9 0.6°
